Nome, AK

3:27 AM AKDT on April 01, 2015 (GMT -0800)
BA Airport | | Change Station
CLOSE
Current Station
Personal Weather Station
Location: Nome, AK
Elevation: 37 ft
Nearby Weather Stations

Elev 37 ft 64.51 °N, 165.45 °W | Updated 2 minutes ago

Clear
Clear
-0.6 °F
Feels Like -1 °F
N
0.0
Wind Variable Wind from NW
Gusts 8.0 mph

Today
High -- | Low -- °F
--% Chance of Precip.
Yesterday
High -- | Low -- °F
Precip. -- in
8:18 AM 9:53 PM
Waxing Gibbous, 92% visible
Pressure 29.88 in
Visibility 10.0 miles
Clouds Clear
Windchill -1 °F
Dew Point -5 °F
Humidity 82%
Rainfall 0.00 in
Snow Depth Not available.
UV 0 out of 12
Pollen Not available.
Air Quality Not available.
Flu Activity Not available.
METAR PAOM 011053Z 01003KT 10SM CLR M19/M22 A2988 RMK AO2 SLP119 T11941217

More Conditions Fewer Conditions

Pressure 29.88 in
Visibility 10.0 miles
Clouds Clear
Windchill -1 °F
Dew Point -5 °F
Humidity 82%
Rainfall 0.00 in
Snow Depth Not available.
UV 0 out of 12
Pollen Not available.
Air Quality Not available.
Flu Activity Not available.
METAR PAOM 011053Z 01003KT 10SM CLR M19/M22 A2988 RMK AO2 SLP119 T11941217

More Conditions Fewer Conditions

10-Day Weather Forecast

Almanac

Astronomy

Apr. 01, 2015 Rise Set
Actual Time
Civil Twilight
Nautical Twilight
Astronomical Twilight
Moon
Length of Visible Light
Length of Day
Tomorrow will be .
, % of the Moon is Illuminated

Today's Extremes

State Highs State Lows

Community

WunderPhotos

Upload Photos

1,809,936 photos uploaded!

WunderBlogs® & News

Nearby

Air Quality

  Air Quality AQ Index Pollutant
Not available.

Snow Depth

Station Depth Elevation

Earthquake Activity

City Distance Mag. Time & Date
Minimum magnitude displayed is 2.5.

Coastal Water Temperatures

Place Temperature

Stations

Nearby Weather Stations

Station Location Temp. Windchill Dew Point Humidity Wind Precip. Elev Updated Type